Location: Aytr�
(46.1357°N, 1.1145°W)
Time: 10:06:23
(UTC+00:00)

Nauka - Pass Details

Date: 25 September 2021
Orbit: 417 x 423 km, 51.6° (Epoch: 24 October)

Event Time Altitude Azimuth Distance (km) Brightness Sun altitude
Rises 19:42:11 0° 289° (WNW) 2,366 ? -18.9°
Reaches altitude 10° 19:44:26 10° 300° (WNW) 1,502 ? -19.3°
Maximum altitude 19:47:29 31° 5° (N) 764 ? -19.8°
Enters shadow 19:47:58 30° 22° (NNE) 790 ? -19.9°
